Temperature
21 21 20 21 27 29 29 29 29 28 28 27 26 27 27 27 26 25 21 20 20 20 19 20 20 20 19 19 19 19 19 19 19 19 19 19 19 19 19 18 18 18 18 18 18 18 18 18 18
21 21 21 25 29 29 29 29 28 28 27 26 26 26 26 25 23 22 21 20 20 20 19 19 20 19 19 19 19 19 19 19 19 19 19 19 19 19 18 18 18 18 18 18 18 18 18 18 18
20 21 24 28 29 29 29 29 28 28 26 26 26 25 25 24 22 21 20 20 20 20 19 19 19 19 19 19 19 19 19 19 19 19 18 18 18 18 18 18 18 18 18 18 18 18 18 18 18
21 23 26 29 29 29 29 28 28 27 26 26 26 25 23 22 21 21 20 20 20 20 19 19 19 19 19 19 19 19 19 19 19 18 18 18 18 18 18 18 18 18 18 18 18 18 18 18 17
22 26 28 29 28 29 29 28 27 28 27 26 26 25 23 21 20 20 20 20 20 20 19 19 19 19 19 19 19 19 19 18 18 18 18 18 18 18 17 17 17 17 18 18 17 17 17 17 17
25 28 28 28 28 28 28 27 27 28 27 26 25 25 23 21 20 20 20 20 20 19 19 19 19 19 19 19 19 18 18 18 18 18 18 18 18 17 17 17 17 17 17 17 17 17 17 17 17
26 28 28 29 28 28 28 27 27 27 27 26 25 26 23 21 20 20 20 20 19 19 19 18 19 19 18 18 18 18 18 18 18 17 17 17 17 17 17 17 17 17 17 17 17 17 17 17 17
25 28 28 28 28 28 28 27 27 27 26 25 25 26 24 21 20 19 19 19 19 19 18 18 18 18 18 18 18 18 18 18 17 17 17 17 17 17 17 16 17 17 17 17 17 17 17 17 17
25 27 28 28 28 28 27 27 26 25 25 24 24 24 23 20 20 19 19 19 19 18 18 18 18 18 17 17 17 17 17 17 17 17 17 17 16 16 16 16 16 16 16 16 16 16 16 17 17
26 27 28 29 29 28 27 27 26 26 26 25 23 22 21 20 20 20 20 19 19 18 18 18 18 18 17 17 17 17 17 17 16 16 16 16 16 16 16 16 16 16 16 16 16 16 16 16 16
27 28 28 28 27 27 27 27 26 27 27 26 24 22 21 20 20 20 20 19 19 18 18 18 18 17 17 17 17 17 16 16 16 16 16 16 16 16 16 16 16 16 16 16 16 16 16 16 16
27 27 27 27 27 27 27 27 26 26 26 25 24 22 21 21 21 20 20 19 19 18 18 18 17 17 17 17 17 17 16 16 16 16 16 16 16 16 16 16 15 15 16 15 15 15 15 15 15
27 27 26 26 26 26 26 26 26 25 25 24 23 22 21 21 21 20 20 19 19 18 18 17 17 17 17 17 17 17 16 16 16 16 16 16 15 15 15 15 15 15 15 15 15 15 15 15 15
27 27 26 26 26 26 26 26 26 25 24 23 23 22 21 21 20 20 19 19 18 18 18 17 17 17 17 17 17 17 16 16 16 16 16 16 15 15 15 15 15 15 15 15 15 15 15 15 15
26 27 27 27 27 27 27 27 27 25 24 23 23 22 21 21 20 20 19 19 18 18 17 17 17 17 17 17 16 16 16 16 16 16 16 15 15 15 15 15 15 15 15 15 15 15 15 15 15
27 27 27 28 28 27 27 27 27 25 24 24 23 22 21 20 20 19 19 18 18 18 17 17 17 16 16 16 16 16 16 16 16 15 15 15 15 15 15 15 15 15 14 14 14 14 15 15 15
28 28 28 28 28 27 27 27 27 25 24 24 23 22 21 21 20 19 19 18 18 18 17 17 17 16 16 16 16 16 15 15 15 15 15 15 15 15 15 14 15 14 14 14 14 14 14 14 14
27 28 28 28 28 27 27 27 26 25 24 24 24 23 22 21 20 19 18 18 18 17 17 17 16 16 16 16 15 15 15 15 15 15 15 15 15 14 14 14 14 14 14 14 14 14 14 14 14
27 27 27 28 28 27 27 26 26 26 25 24 24 23 22 21 20 19 18 18 17 17 17 16 16 16 16 15 15 15 15 15 15 15 15 15 14 14 14 14 14 14 14 14 13 14 14 14 14
27 27 27 27 27 27 27 26 27 26 25 24 24 23 22 21 20 19 18 17 17 17 17 16 16 16 15 15 15 15 15 15 15 15 15 14 14 14 14 14 14 14 14 13 13 13 14 14 14
27 27 27 27 27 27 26 26 26 26 25 24 23 23 22 21 20 19 18 17 17 17 16 16 16 16 15 15 15 15 15 15 15 15 14 14 14 14 14 14 14 14 13 13 13 13 13 13 14
26 28 27 27 26 27 26 26 26 26 25 24 23 23 22 21 20 19 18 18 17 17 16 16 16 15 15 15 14 14 14 14 15 14 14 14 14 14 14 14 13 13 13 13 13 13 13 13 14
27 27 27 27 26 26 27 26 27 26 25 25 24 23 22 21 20 19 19 18 17 17 16 16 15 15 15 15 14 14 14 14 14 14 14 14 14 13 13 13 13 13 13 13 13 13 13 13 13
27 27 26 26 27 25 26 26 26 27 26 26 24 23 22 21 20 19 18 18 17 16 16 16 15 15 15 15 14 14 14 14 14 14 14 14 14 13 13 13 13 13 13 13 13 13 13 13 13
26 26 25 25 26 26 26 26 26 27 26 25 24 23 22 20 20 19 18 18 17 16 16 15 15 15 15 14 14 14 14 14 14 14 14 14 13 13 13 13 13 13 13 13 13 13 13 12 12
26 26 25 25 26 27 26 26 27 26 25 24 23 22 21 20 20 19 18 17 17 16 16 15 15 15 14 14 14 14 14 14 14 14 14 13 13 13 13 13 13 13 13 13 13 13 13 12 12
26 27 27 26 26 26 26 26 26 25 24 24 23 22 21 20 19 19 18 17 17 16 15 15 15 15 14 14 14 14 14 14 14 14 13 13 13 13 13 13 13 13 13 12 13 13 12 12 12
27 27 26 26 24 25 26 26 26 25 25 24 23 22 21 20 19 19 18 17 16 16 15 15 15 14 14 14 14 14 14 14 14 13 13 13 13 13 13 13 13 12 12 12 12 13 13 12 12
26 26 26 26 26 25 25 26 27 26 25 24 23 22 21 20 19 18 18 17 16 16 15 15 14 14 14 14 14 13 13 13 13 13 13 13 13 13 13 13 12 12 12 12 12 12 12 12 12
26 26 26 25 25 25 25 26 25 25 24 24 23 22 21 20 19 18 18 17 17 16 15 15 15 14 14 14 14 13 13 13 13 13 13 13 13 13 13 12 12 12 13 12 12 12 12 12 12
Wind_Speed
9 8 6 5 6 3 2 3 2 2 2 3 2 1 2 3 3 3 5 7 7 9 11 13 11 10 10 11 11 11 11 11 11 10 10 10 10 10 9 9 9 8 8 8 8 8 8 9 9
7 6 6 5 5 3 3 3 2 2 3 3 2 2 2 3 4 4 6 8 9 10 11 11 12 10 10 11 11 11 11 11 11 10 10 9 9 9 8 8 8 7 7 7 7 7 7 8 8
7 6 5 4 3 1 2 3 2 3 3 2 2 1 1 3 3 4 6 9 9 10 11 12 11 10 10 11 10 10 11 11 11 10 9 8 8 8 8 8 8 7 7 7 7 7 7 7 7
5 5 5 5 3 1 1 2 2 3 3 2 2 3 3 3 2 5 9 10 9 9 10 13 11 10 10 10 10 10 10 10 10 9 8 8 7 7 7 7 7 7 6 6 6 6 7 7 7
6 5 6 5 3 2 1 1 2 2 2 3 3 3 4 3 5 9 10 9 9 9 9 12 11 10 9 9 9 9 9 9 9 9 8 8 7 7 7 6 6 5 5 5 5 6 6 7 7
5 5 6 5 4 3 2 1 2 2 3 3 3 3 3 6 8 9 9 8 8 9 9 11 12 10 9 8 8 9 9 8 8 8 8 7 7 7 6 6 6 5 5 5 5 6 6 6 7
7 6 6 5 3 3 2 2 3 2 2 2 2 2 4 7 8 9 9 8 9 9 9 9 10 10 10 9 8 8 8 8 7 7 7 7 6 6 6 6 5 5 5 5 5 6 6 6 6
5 5 7 5 5 2 2 2 1 2 1 2 2 2 4 9 9 9 9 8 9 8 8 8 8 8 8 9 9 7 8 7 7 7 7 6 6 6 6 7 5 4 4 4 5 5 5 5 5
5 7 7 5 4 2 2 2 1 1 2 3 2 1 6 13 12 11 9 8 8 8 7 7 7 6 6 7 8 8 8 7 7 7 7 7 6 6 6 5 5 5 5 4 4 5 5 5 6
6 8 6 2 2 1 1 2 2 4 5 5 5 5 10 13 13 11 10 9 9 8 7 6 6 6 5 5 6 5 5 5 4 4 5 4 3 3 4 6 6 6 6 6 5 5 7 8 6
7 7 4 3 3 3 3 3 3 5 5 5 6 8 11 13 12 11 10 9 8 8 7 6 6 5 5 4 4 3 3 4 3 3 3 3 3 3 3 4 6 7 7 6 7 8 5 5 3
7 7 6 5 4 5 5 4 4 5 4 2 4 9 13 13 12 11 10 9 8 8 8 7 6 6 5 4 4 3 2 2 2 3 3 3 2 2 2 2 3 4 4 4 5 4 4 4 4
9 7 6 6 7 6 6 7 6 5 4 4 6 10 12 12 11 10 9 9 8 8 7 7 6 6 5 4 3 3 2 3 3 2 2 2 2 2 2 2 2 3 3 4 4 3 3 4 4
6 7 8 8 7 6 7 7 7 6 5 7 8 10 11 11 11 10 10 9 8 7 7 6 6 6 5 4 3 3 3 3 3 2 2 2 2 1 2 2 2 2 2 2 3 3 3 3 3
7 8 9 9 8 6 6 8 8 6 6 7 9 9 10 10 10 10 10 9 8 7 6 6 6 6 5 5 4 3 3 3 3 2 3 3 2 2 2 2 2 2 2 3 3 3 4 4 4
9 10 9 7 7 6 8 8 5 7 8 8 9 9 9 10 10 9 9 8 7 7 6 6 5 6 5 4 4 3 3 3 3 3 3 3 3 3 3 2 2 2 3 2 2 3 3 3 4
11 10 8 6 6 6 8 7 4 6 8 8 9 9 10 10 10 9 9 8 8 7 7 6 5 5 5 4 4 3 3 3 3 3 3 3 4 4 3 2 2 3 3 2 3 2 3 3 3
8 8 8 7 5 7 9 8 6 7 9 9 9 9 10 10 10 9 9 8 8 7 6 6 6 5 5 4 4 3 3 3 3 3 3 3 3 4 3 3 3 3 3 2 2 3 2 3 3
10 10 9 7 4 7 9 9 8 9 9 10 10 10 10 10 9 9 9 8 8 7 6 6 6 6 5 4 4 4 4 4 3 3 3 4 4 4 4 2 3 3 3 3 4 3 4 4 3
12 12 10 6 5 7 8 9 8 9 10 10 10 10 10 10 10 10 9 9 9 8 7 7 6 6 6 4 4 4 4 3 3 3 3 4 4 4 4 3 3 3 3 4 4 4 3 3 3
12 12 10 7 5 8 8 10 10 9 10 9 10 10 10 11 11 11 10 10 9 8 8 6 6 6 6 5 4 3 3 3 3 3 3 4 4 4 4 4 4 3 4 3 4 4 5 4 4
11 9 10 9 9 8 7 9 7 8 9 9 10 10 11 11 11 11 11 10 9 8 8 7 6 6 6 6 5 5 4 4 4 4 3 4 5 5 5 5 5 4 3 3 5 4 5 5 4
9 6 9 10 11 10 10 10 6 7 8 9 9 10 11 11 11 11 11 10 9 8 7 7 6 5 6 6 6 5 5 4 3 4 4 4 4 5 6 5 5 5 4 4 4 4 5 5 5
7 7 8 9 10 12 9 9 7 5 6 6 8 9 10 10 10 10 9 9 8 8 7 7 6 6 5 5 5 5 5 4 4 4 5 5 4 5 6 6 5 6 5 5 5 5 5 5 5
11 10 7 8 9 8 5 8 7 2 3 5 6 8 9 10 10 10 10 9 9 8 7 7 6 6 5 5 5 5 5 5 5 5 5 5 5 5 5 5 5 5 5 6 6 6 5 6 6
12 13 9 7 8 6 5 7 3 1 1 3 5 7 8 9 9 9 10 9 9 9 8 7 6 5 5 5 4 4 5 5 4 4 4 5 4 4 4 5 5 5 6 6 6 6 6 5 6
12 12 10 11 11 9 6 5 4 3 4 5 6 8 9 9 9 8 8 8 8 8 8 7 6 5 5 5 4 4 4 4 4 4 5 4 3 4 5 5 5 5 6 6 6 6 6 5 6
11 10 8 10 8 9 7 7 4 4 5 6 7 9 9 8 8 8 8 8 7 7 7 6 6 5 4 4 4 3 4 4 4 4 4 4 4 4 5 5 5 6 6 6 6 6 6 6 6
11 11 10 9 9 8 7 4 0 2 4 6 7 8 9 9 8 8 7 7 7 7 7 6 6 5 5 4 4 3 4 4 4 4 4 4 4 5 5 5 5 6 6 6 6 6 6 7 6
11 11 11 10 9 9 9 4 4 1 2 4 6 8 8 8 8 8 7 7 7 7 6 6 6 5 5 4 4 4 4 4 4 4 4 4 4 5 5 5 5 6 5 5 5 6 6 6 6
Wind_Direction
192 194 211 229 234 214 116 101 77 103 99 74 79 63 39 22 8 62 97 127 132 137 136 142 137 139 142 142 142 143 140 137 135 135 136 138 140 139 138 139 138 140 145 145 145 145 148 148 148
187 195 222 239 251 204 123 104 106 85 90 111 121 112 78 64 52 93 125 134 141 137 137 137 132 136 138 140 142 142 141 138 137 136 137 139 139 140 140 138 139 140 139 142 147 146 149 149 148
190 222 247 244 247 255 108 97 100 113 133 175 148 97 53 76 93 117 128 143 144 140 136 128 134 131 131 135 138 140 140 140 139 137 137 138 138 137 138 139 143 142 143 146 149 152 157 155 152
206 221 234 242 216 80 38 74 117 144 146 165 158 118 101 69 108 129 137 147 144 140 136 132 135 131 134 140 141 141 142 142 140 139 139 139 142 142 142 143 145 146 146 150 159 158 163 164 159
233 244 231 221 204 157 112 345 202 180 157 153 169 128 114 102 111 127 141 146 143 139 134 134 136 134 133 134 137 140 142 144 144 143 145 147 148 148 150 151 152 156 158 161 163 160 163 168 166
228 239 236 223 186 173 163 179 199 173 146 146 164 153 115 121 133 138 141 146 145 141 136 133 138 138 138 135 137 139 141 144 148 147 151 153 156 159 161 160 164 170 171 170 169 167 165 168 171
252 245 245 234 199 185 153 178 205 193 168 155 170 155 131 136 136 141 140 139 134 134 134 137 145 146 145 143 138 138 140 140 141 143 147 154 160 164 167 166 167 174 182 182 178 176 174 174 176
258 249 231 221 212 184 137 172 208 243 185 137 193 187 146 143 143 142 140 138 134 135 137 141 145 145 152 147 138 136 134 132 134 139 146 154 165 169 173 175 164 171 179 189 185 180 181 180 183
240 241 227 216 214 170 146 190 177 217 176 167 177 77 112 138 146 147 145 144 142 140 141 143 144 144 148 144 137 147 147 147 159 156 154 180 187 178 179 158 156 181 189 190 187 185 188 186 182
228 237 230 243 264 213 191 239 221 194 188 175 154 122 130 146 154 157 158 158 156 153 151 150 147 149 147 137 140 152 155 148 168 156 169 183 179 186 178 147 173 190 192 191 192 196 202 216 198
232 246 246 249 249 249 249 250 227 226 219 200 178 157 154 158 163 167 169 166 165 161 157 156 153 153 148 140 141 141 142 141 156 154 174 185 192 189 187 179 184 193 198 198 186 203 208 213 210
236 249 257 256 251 251 253 250 245 248 245 198 170 161 163 169 171 173 172 168 167 165 165 164 161 157 155 138 138 146 142 145 149 154 191 187 191 195 187 204 197 199 199 200 202 202 197 208 208
232 244 247 250 249 253 253 248 250 252 223 175 158 164 171 175 175 173 171 168 168 169 170 170 168 160 154 148 158 150 161 163 155 165 181 211 199 199 196 208 216 216 205 201 204 207 196 209 210
242 248 249 246 241 233 231 238 232 234 190 170 170 174 180 178 175 171 172 173 174 175 173 173 174 166 163 163 170 173 174 174 178 175 176 219 220 199 212 206 216 220 216 220 221 211 212 226 223
241 247 241 229 228 222 223 234 226 206 183 183 185 184 183 179 175 176 177 177 174 172 171 174 176 173 175 180 188 189 186 186 186 180 187 209 224 214 219 217 212 205 203 208 221 217 223 223 221
229 236 236 208 209 213 228 240 197 184 189 197 193 188 185 182 182 179 177 176 172 171 171 175 180 177 182 189 202 204 205 200 196 192 194 209 220 222 228 221 211 202 205 209 217 228 226 227 233
221 233 239 213 198 213 231 252 209 192 203 209 201 194 189 185 187 182 179 179 175 174 175 176 180 182 187 194 203 207 199 209 210 205 202 208 218 221 230 222 202 212 209 217 228 217 234 224 231
236 244 240 238 199 224 240 252 230 208 213 216 209 202 195 192 188 181 181 181 180 176 180 180 184 187 195 194 196 205 208 211 214 211 208 213 216 216 226 213 201 210 204 216 219 217 231 242 235
255 255 251 246 227 244 249 252 238 217 216 219 215 210 205 197 185 179 179 181 180 180 183 186 189 187 193 195 204 208 212 217 218 218 206 206 213 212 222 227 206 213 201 217 214 213 206 221 225
243 247 246 234 219 251 260 259 242 224 223 222 219 214 209 196 185 181 181 183 186 186 187 190 192 191 198 198 209 214 218 223 223 231 214 212 212 213 215 222 222 210 203 206 211 216 225 221 214
241 244 250 252 251 242 258 255 231 221 222 222 222 219 210 201 193 186 186 190 191 191 192 193 195 195 200 202 205 203 204 217 216 220 216 214 215 219 225 217 223 218 220 207 217 211 219 226 221
245 239 246 246 251 251 241 268 235 217 213 216 219 216 209 201 197 193 191 192 196 195 190 194 196 198 201 203 204 205 213 225 228 224 219 214 214 218 216 215 213 220 223 209 222 209 222 230 232
245 247 245 247 251 260 243 258 249 207 226 222 217 214 207 199 196 195 193 191 193 192 189 190 192 199 202 204 204 213 226 234 227 219 212 218 212 215 215 213 213 217 222 219 228 216 227 231 243
227 226 233 237 242 246 243 253 258 226 240 226 211 208 200 196 193 191 187 185 187 188 187 186 188 195 198 204 209 215 227 234 232 224 218 219 213 214 213 215 217 218 221 219 225 227 228 243 249
215 227 232 228 227 241 213 245 262 248 238 229 216 204 193 193 191 186 183 183 183 186 189 188 187 192 193 199 211 218 227 227 227 230 223 226 220 215 208 219 221 225 225 225 226 228 236 236 240
220 230 243 254 255 256 212 243 247 173 216 218 212 200 186 187 188 187 185 184 183 182 184 186 188 190 192 195 210 222 229 232 228 231 234 231 231 223 208 218 223 226 229 230 227 232 231 232 237
223 227 248 262 267 267 246 238 219 185 199 195 185 183 180 181 181 182 180 180 180 179 181 184 185 188 193 195 207 220 224 233 234 227 231 228 224 218 211 216 223 227 227 231 234 236 231 230 234
241 233 233 243 254 261 253 246 246 190 198 185 179 181 178 177 177 177 175 176 177 177 176 177 179 186 191 195 204 211 217 220 228 230 229 232 224 219 214 215 221 226 228 230 236 237 229 229 231
214 220 233 244 250 262 269 266 57 221 204 194 188 181 176 176 175 171 170 175 177 179 178 176 178 184 188 198 204 213 218 221 225 228 228 226 225 218 217 219 222 226 227 226 228 235 231 231 233
225 228 227 240 244 250 269 274 83 114 185 194 187 178 173 174 170 168 169 173 179 181 178 178 184 189 190 197 204 209 217 222 228 228 228 222 221 221 217 217 220 226 223 221 225 232 234 232 235
Height
1512 1513 1514 1515 1508 1498 1499 1498 1497 1499 1500 1504 1505 1505 1504 1505 1507 1515 1517 1516 1517 1519 1519 1519 1520 1521 1523 1524 1525 1526 1527 1528 1529 1530 1531 1532 1533 1534 1535 1535 1536 1537 1538 1539 1540 1541 1542 1542 1543
1513 1514 1516 1512 1500 1501 1500 1496 1499 1500 1504 1506 1507 1508 1507 1509 1513 1515 1515 1516 1518 1519 1520 1520 1521 1522 1523 1524 1525 1527 1528 1529 1529 1531 1532 1533 1533 1534 1535 1536 1537 1538 1539 1540 1541 1541 1542 1543 1544
1513 1514 1514 1503 1497 1499 1499 1497 1500 1503 1506 1507 1507 1509 1510 1512 1514 1515 1516 1517 1519 1520 1521 1521 1522 1523 1524 1525 1526 1527 1528 1529 1530 1531 1532 1533 1534 1535 1536 1537 1538 1539 1539 1540 1541 1542 1543 1544 1545
1515 1515 1510 1501 1499 1497 1497 1499 1501 1503 1506 1507 1507 1509 1512 1515 1515 1516 1516 1518 1520 1521 1522 1521 1523 1524 1525 1525 1527 1528 1529 1530 1531 1531 1532 1533 1535 1536 1537 1537 1538 1539 1540 1540 1541 1542 1543 1544 1545
1515 1510 1501 1499 1498 1497 1499 1501 1502 1502 1503 1506 1507 1508 1512 1515 1515 1515 1516 1518 1520 1521 1522 1522 1523 1524 1525 1526 1527 1528 1529 1530 1531 1532 1532 1533 1534 1536 1537 1537 1538 1539 1540 1541 1541 1542 1543 1544 1545
1512 1505 1500 1500 1498 1498 1500 1503 1503 1502 1503 1506 1508 1508 1512 1514 1515 1516 1517 1518 1519 1521 1522 1522 1523 1525 1526 1527 1528 1528 1529 1530 1531 1532 1533 1534 1534 1536 1537 1537 1538 1539 1540 1541 1541 1542 1543 1544 1544
1509 1501 1498 1496 1498 1498 1500 1502 1502 1502 1503 1505 1507 1508 1512 1514 1515 1516 1518 1518 1519 1520 1522 1523 1525 1525 1526 1527 1528 1528 1529 1530 1531 1532 1533 1534 1535 1536 1536 1537 1538 1539 1540 1540 1541 1542 1542 1543 1544
1508 1501 1497 1495 1498 1498 1500 1502 1503 1503 1504 1507 1508 1507 1510 1514 1515 1517 1518 1519 1520 1520 1522 1523 1525 1526 1527 1528 1528 1528 1529 1530 1531 1532 1533 1534 1535 1535 1536 1536 1537 1538 1539 1540 1540 1541 1542 1543 1543
1509 1502 1497 1494 1495 1497 1500 1501 1503 1504 1505 1507 1508 1509 1511 1513 1514 1517 1518 1519 1521 1521 1523 1524 1525 1526 1527 1528 1528 1528 1529 1530 1531 1532 1532 1533 1535 1536 1536 1536 1536 1537 1538 1539 1540 1541 1541 1542 1543
1505 1498 1495 1494 1494 1496 1499 1501 1502 1503 1503 1505 1508 1509 1510 1512 1514 1516 1517 1519 1520 1521 1522 1523 1525 1525 1527 1527 1528 1528 1529 1530 1531 1532 1532 1533 1534 1535 1535 1535 1535 1536 1537 1538 1538 1539 1540 1541 1542
1501 1496 1494 1496 1498 1499 1499 1500 1501 1500 1500 1502 1505 1508 1510 1512 1513 1515 1517 1518 1519 1521 1522 1523 1524 1525 1526 1527 1527 1528 1529 1529 1530 1531 1531 1532 1533 1534 1534 1534 1535 1535 1536 1537 1537 1539 1540 1541 1541
1500 1498 1498 1497 1498 1499 1499 1499 1499 1499 1500 1502 1504 1507 1509 1510 1512 1514 1516 1518 1519 1520 1521 1522 1523 1524 1525 1526 1527 1527 1528 1529 1530 1530 1530 1531 1532 1532 1532 1533 1534 1535 1535 1536 1537 1537 1538 1539 1540
1498 1497 1498 1498 1498 1498 1498 1498 1498 1499 1500 1502 1504 1506 1507 1509 1511 1513 1515 1517 1518 1519 1521 1522 1522 1523 1524 1525 1526 1527 1527 1528 1529 1529 1529 1530 1531 1531 1531 1531 1532 1533 1534 1534 1535 1536 1536 1537 1538
1495 1496 1496 1495 1495 1496 1496 1496 1497 1497 1499 1501 1503 1504 1506 1508 1510 1512 1514 1516 1517 1519 1520 1521 1521 1522 1523 1524 1525 1526 1527 1527 1528 1528 1528 1528 1529 1529 1529 1530 1530 1531 1532 1533 1533 1534 1535 1536 1536
1496 1494 1492 1491 1491 1492 1494 1493 1492 1495 1498 1499 1501 1503 1505 1507 1509 1510 1512 1514 1516 1517 1518 1519 1520 1521 1522 1523 1524 1525 1526 1526 1527 1527 1527 1527 1527 1527 1528 1528 1529 1529 1530 1530 1531 1532 1533 1534 1535
1491 1489 1488 1485 1488 1490 1493 1490 1489 1494 1496 1497 1499 1501 1503 1505 1507 1509 1511 1513 1514 1515 1517 1518 1519 1520 1520 1522 1522 1524 1524 1525 1525 1525 1525 1525 1525 1526 1526 1527 1527 1527 1528 1529 1529 1530 1531 1532 1533
1484 1485 1483 1482 1484 1486 1487 1486 1488 1491 1493 1494 1496 1499 1501 1503 1506 1508 1509 1511 1512 1513 1515 1516 1517 1518 1519 1520 1521 1522 1522 1523 1523 1523 1523 1524 1524 1524 1525 1525 1525 1525 1526 1527 1528 1529 1530 1530 1531
1483 1481 1482 1481 1480 1483 1484 1484 1485 1489 1491 1492 1494 1496 1499 1501 1503 1505 1507 1508 1510 1511 1513 1514 1515 1516 1517 1518 1519 1520 1521 1521 1521 1521 1521 1521 1522 1522 1523 1523 1523 1524 1525 1525 1526 1526 1527 1528 1529
1479 1480 1481 1479 1478 1481 1482 1482 1482 1485 1487 1489 1491 1493 1496 1498 1501 1503 1505 1507 1508 1509 1511 1512 1513 1514 1515 1516 1517 1518 1519 1519 1519 1520 1519 1520 1520 1520 1521 1521 1521 1521 1522 1523 1524 1525 1526 1527 1527
1479 1481 1478 1476 1477 1480 1479 1479 1477 1480 1483 1485 1487 1490 1493 1496 1499 1501 1503 1504 1505 1507 1508 1509 1511 1512 1513 1513 1514 1515 1516 1517 1517 1517 1517 1517 1518 1518 1519 1519 1519 1520 1520 1520 1521 1522 1524 1525 1525
1477 1477 1476 1477 1476 1477 1480 1478 1475 1476 1480 1483 1485 1487 1489 1492 1495 1498 1500 1502 1503 1504 1505 1507 1508 1509 1510 1511 1513 1513 1514 1514 1515 1515 1515 1515 1515 1516 1516 1517 1517 1518 1519 1519 1519 1520 1521 1522 1524
1476 1470 1472 1475 1478 1475 1477 1481 1471 1470 1475 1478 1481 1483 1485 1489 1492 1494 1497 1499 1500 1502 1503 1504 1505 1506 1507 1509 1510 1510 1511 1512 1512 1512 1513 1513 1513 1513 1514 1514 1515 1516 1517 1517 1517 1518 1519 1520 1521
1470 1468 1470 1471 1474 1476 1472 1477 1469 1467 1471 1472 1476 1479 1482 1486 1488 1491 1494 1496 1498 1499 1501 1502 1503 1504 1505 1506 1507 1508 1509 1510 1510 1510 1510 1510 1510 1510 1511 1511 1512 1513 1514 1514 1515 1515 1517 1518 1519
1468 1471 1471 1470 1470 1480 1470 1475 1469 1462 1465 1466 1471 1475 1479 1483 1486 1488 1491 1494 1495 1497 1498 1499 1500 1501 1502 1503 1504 1505 1506 1506 1507 1507 1507 1507 1508 1508 1508 1509 1509 1510 1511 1512 1512 1513 1514 1515 1516
1468 1473 1479 1479 1477 1473 1465 1471 1466 1458 1461 1464 1468 1472 1476 1480 1483 1486 1488 1490 1492 1494 1495 1497 1497 1498 1499 1500 1501 1502 1502 1503 1504 1504 1504 1504 1505 1505 1505 1506 1506 1507 1508 1509 1510 1510 1512 1512 1513
1465 1467 1477 1483 1476 1466 1465 1467 1457 1457 1461 1465 1468 1471 1475 1478 1481 1483 1486 1488 1490 1492 1493 1494 1495 1496 1497 1497 1498 1499 1499 1501 1501 1501 1502 1502 1502 1502 1502 1503 1504 1504 1505 1506 1507 1508 1509 1509 1509
1462 1461 1457 1466 1465 1469 1462 1458 1455 1458 1460 1463 1467 1470 1473 1476 1478 1481 1484 1486 1488 1490 1491 1492 1493 1494 1494 1495 1496 1496 1497 1498 1498 1499 1499 1499 1499 1500 1500 1500 1501 1502 1503 1503 1504 1505 1505 1506 1506
1456 1456 1461 1465 1476 1475 1464 1459 1455 1455 1457 1460 1464 1468 1471 1474 1477 1479 1482 1484 1486 1488 1489 1490 1491 1492 1492 1493 1493 1494 1495 1495 1496 1496 1496 1496 1496 1497 1497 1498 1498 1499 1500 1501 1501 1502 1503 1503 1504
1458 1459 1458 1457 1458 1469 1471 1461 1448 1451 1454 1457 1461 1465 1469 1472 1474 1477 1480 1482 1484 1486 1487 1488 1489 1490 1490 1491 1491 1492 1492 1493 1493 1494 1494 1494 1494 1494 1495 1495 1496 1497 1498 1498 1499 1500 1500 1500 1501
1450 1452 1455 1464 1463 1460 1462 1459 1449 1451 1454 1457 1461 1465 1468 1471 1473 1476 1478 1480 1482 1484 1485 1485 1486 1487 1488 1489 1489 1490 1490 1490 1491 1491 1491 1491 1491 1492 1493 1493 1494 1495 1495 1496 1497 1497 1498 1498 1498